Lapse_Rate
7.8 7.3 7.2 7.2 7.1 7.1 7.1 7.3 6.9 7.5 7.1 7.4 7.2 6.8 6.9 6.8 6.6 6.7 6.8 6.4 6.4 5.9 5.6 5.9 5.9 6.0 5.8 6.0 5.9 5.8 5.8 5.9 5.9 6.0 6.1 6.2 6.5 6.6 6.8 6.7 6.5 6.4 6.3
7.6 7.4 7.3 7.1 7.2 7.3 7.4 7.6 7.5 7.0 7.0 6.9 7.0 6.7 6.6 6.6 6.6 6.5 6.5 6.4 6.5 6.4 5.8 5.9 5.9 6.1 6.1 5.8 5.7 5.9 5.8 5.8 5.9 5.9 5.9 6.1 6.7 6.8 6.5 6.4 6.2 6.3 6.3
7.4 7.3 7.3 7.2 7.2 7.6 7.9 7.9 7.8 7.7 7.1 7.0 6.8 6.3 6.0 6.2 6.3 6.5 6.4 6.5 6.5 6.5 6.0 5.9 5.9 6.0 6.1 6.1 6.2 6.0 5.9 6.1 6.2 6.1 6.1 6.0 6.5 6.8 6.9 6.6 6.5 6.5 6.4
7.7 7.6 7.3 7.3 7.2 7.6 8.0 7.9 7.9 7.7 7.2 6.7 6.6 6.5 6.1 5.7 6.1 6.4 6.2 6.4 6.6 6.4 6.1 6.1 6.0 6.0 6.1 6.2 6.0 5.9 5.9 6.1 6.3 6.1 6.3 6.2 6.1 6.3 6.7 6.9 6.9 6.7 6.5
7.1 7.3 7.2 7.0 7.1 7.8 7.7 7.5 7.8 7.6 7.0 6.6 6.4 6.5 6.1 5.8 5.9 6.1 6.3 6.4 6.4 6.4 6.3 6.3 6.3 6.2 6.3 6.2 6.1 6.2 6.1 6.1 6.3 6.2 6.2 6.3 6.1 6.2 6.3 6.5 6.6 6.6 6.6
7.4 7.4 7.0 6.8 7.4 7.5 7.4 7.3 7.5 7.2 6.8 6.7 6.4 6.4 6.3 5.5 5.6 6.1 6.3 6.2 6.3 6.5 6.5 6.4 6.3 6.1 6.1 6.1 6.2 6.4 6.3 6.2 6.2 6.2 6.2 6.2 6.2 6.4 6.5 6.2 6.3 6.3 6.4
7.5 7.3 7.1 7.0 7.0 7.4 7.1 7.3 7.0 6.9 6.5 6.5 6.4 6.4 6.4 5.7 5.8 6.2 6.3 6.5 6.7 6.7 6.7 6.5 6.4 6.3 6.2 6.3 6.2 6.3 6.3 6.3 6.3 6.3 6.4 6.6 6.6 6.4 6.4 6.2 6.2 6.4 6.6
7.4 7.3 7.1 7.3 7.2 7.2 6.8 6.7 6.7 6.6 6.4 6.3 6.4 6.2 6.6 6.4 6.4 6.6 6.7 6.9 6.9 6.7 6.7 6.7 6.5 6.3 6.2 6.1 6.1 6.1 6.3 6.3 6.4 6.4 6.5 6.5 6.6 6.5 6.6 6.6 6.7 6.7 6.7
7.6 7.1 6.9 6.7 7.5 7.2 6.8 6.5 6.5 6.4 6.2 6.4 6.3 6.4 6.5 6.8 6.8 6.8 6.9 7.1 7.0 6.7 6.6 6.5 6.4 6.2 6.2 6.2 6.4 6.5 6.7 6.8 6.8 6.7 6.5 6.5 6.6 6.6 6.5 6.5 6.6 6.6 6.5
6.9 7.6 7.6 7.2 7.5 7.0 6.9 6.7 6.4 6.3 6.2 6.1 6.3 6.3 6.6 6.6 6.5 6.6 6.4 6.4 6.4 6.4 6.4 6.5 6.5 6.5 6.5 6.5 6.5 6.7 6.8 6.7 6.7 6.4 6.3 6.5 6.6 6.8 6.7 6.7 6.6 6.6 6.5
7.3 6.9 7.6 7.4 7.4 6.9 6.7 6.7 6.5 6.3 6.2 6.0 6.0 6.1 6.4 6.5 6.4 6.3 6.5 6.5 6.5 6.6 6.8 6.8 6.7 6.6 6.7 6.7 6.8 6.8 6.6 6.3 6.1 6.3 6.6 6.5 6.4 6.3 6.7 6.5 6.5 6.6 6.3
6.8 6.5 6.9 7.3 7.1 6.7 6.8 6.8 6.3 6.3 6.3 6.0 6.0 6.0 6.2 6.4 6.4 6.3 6.4 6.6 6.8 7.0 7.1 7.2 7.1 7.0 6.9 6.8 6.6 6.3 6.2 6.2 6.1 6.2 6.0 6.5 6.4 6.1 6.1 6.3 6.4 6.4 6.3
6.8 7.0 7.2 7.1 6.8 6.6 6.8 6.8 6.4 6.3 6.1 6.0 6.0 6.1 6.0 6.2 6.5 6.5 6.7 6.9 6.9 7.0 7.0 6.9 6.9 6.8 6.7 6.6 6.5 6.4 6.3 6.1 6.0 6.1 6.2 6.1 6.1 6.2 6.2 6.3 6.2 6.4 6.1
7.1 7.1 6.5 6.5 6.5 6.6 6.7 6.7 6.6 6.5 6.2 6.1 6.2 6.3 6.2 6.3 6.7 6.7 6.7 6.7 6.7 6.8 6.8 6.8 6.7 6.5 6.4 6.3 6.5 6.4 6.3 6.1 5.8 5.7 5.6 5.7 5.9 5.9 6.1 6.6 6.2 6.2 6.2
6.9 6.8 6.8 6.2 6.6 6.5 6.5 6.7 6.8 6.5 6.2 6.1 6.2 6.3 6.3 6.4 6.8 6.6 6.6 6.6 6.7 6.7 6.6 6.5 6.3 6.4 6.4 6.4 5.9 5.8 5.4 5.4 5.4 5.6 5.8 5.7 6.0 6.1 6.4 6.3 6.4 6.2 6.5
6.8 6.4 6.1 6.6 6.7 6.3 6.5 6.2 6.5 6.5 6.1 6.1 6.2 6.4 6.5 6.5 6.5 6.5 6.4 6.4 6.5 6.5 6.4 6.4 6.1 5.9 5.6 5.5 5.4 5.6 5.5 5.2 5.6 6.0 6.0 5.9 6.0 6.1 6.4 6.4 6.5 6.9 6.8
7.0 6.5 6.2 6.2 6.1 6.3 6.4 6.0 6.2 6.2 5.8 5.7 6.1 6.4 6.6 6.5 6.2 6.2 6.3 6.2 6.1 6.0 5.9 5.6 5.5 5.4 5.2 5.4 5.6 5.0 5.0 5.4 5.8 5.8 6.0 6.0 6.2 6.4 6.3 6.6 6.3 6.3 6.1
7.3 6.9 7.0 6.4 5.9 6.7 6.3 5.8 5.7 6.0 5.8 5.8 6.3 6.4 6.4 6.3 6.2 6.0 5.8 5.5 5.5 5.5 5.5 5.5 5.1 4.9 4.9 5.2 4.8 4.8 4.9 5.3 5.7 5.8 5.8 5.9 6.2 6.2 6.0 5.9 6.4 6.1 6.1
7.1 6.9 6.6 6.1 6.0 6.1 6.2 6.0 5.9 5.9 6.1 6.0 6.2 6.4 6.6 6.4 6.0 5.8 5.7 5.8 5.8 5.4 5.3 5.3 5.1 4.8 4.7 4.5 4.7 5.0 5.3 5.6 5.8 5.7 5.8 5.7 5.8 5.8 6.0 5.9 6.1 6.3 6.4
7.5 7.5 7.0 6.4 6.2 6.0 6.3 6.1 6.2 6.2 6.1 6.4 6.2 6.0 6.1 6.0 5.9 5.8 5.8 5.5 5.2 4.9 4.8 5.1 5.0 4.2 4.2 4.7 4.9 5.1 5.2 5.3 5.2 5.7 5.8 5.6 5.5 5.6 5.7 5.9 6.2 6.4 6.3
7.3 7.1 6.8 6.5 6.1 5.4 5.6 5.8 5.9 6.1 6.1 5.7 5.8 6.0 6.1 6.1 5.8 5.2 4.5 4.4 4.7 5.0 4.8 4.5 4.6 4.4 5.0 5.1 5.1 5.1 5.2 5.5 5.5 5.7 5.7 5.6 5.4 5.4 5.8 6.1 6.4 6.7 6.8
6.5 6.5 6.1 5.9 5.7 5.7 5.7 5.5 5.5 5.4 5.4 5.8 5.8 5.7 5.8 5.4 5.1 4.9 4.9 4.9 4.8 4.8 4.7 4.5 4.7 4.6 4.8 4.9 5.0 5.3 5.5 5.5 5.4 5.4 5.4 5.6 5.9 6.0 6.3 6.8 7.2 7.4 7.7
6.2 6.0 5.9 5.9 5.9 5.9 5.8 5.5 5.4 5.6 5.8 5.7 5.4 5.5 5.3 5.1 5.1 4.9 4.6 4.6 4.5 4.6 4.5 4.6 4.9 5.1 5.3 5.4 5.5 5.5 5.3 5.1 5.0 5.1 5.3 5.8 6.1 6.6 7.2 7.6 8.0 8.0 7.7
6.1 6.1 6.0 5.7 6.0 6.4 6.0 5.5 5.6 5.3 4.9 5.2 5.4 5.5 5.5 5.5 4.8 4.6 4.7 4.7 4.7 4.8 5.0 5.1 5.1 5.2 5.2 5.2 5.1 5.1 5.2 5.4 5.6 6.0 6.1 6.4 7.1 7.9 8.2 8.2 8.2 8.0 7.6
6.0 6.0 5.9 6.0 6.2 5.9 5.7 5.5 5.2 5.1 5.3 5.4 5.5 5.6 5.1 4.5 4.5 4.6 4.7 4.8 4.9 5.0 5.0 5.1 5.0 5.2 5.3 5.2 5.2 5.2 5.3 5.5 5.8 6.0 6.3 7.2 7.9 8.4 8.5 8.3 8.2 8.1 7.6
6.0 5.8 6.1 6.2 6.0 5.6 5.5 5.2 5.4 5.4 5.5 5.6 5.5 5.0 4.0 4.5 4.9 5.0 5.0 4.9 5.0 5.1 5.2 5.1 5.2 5.2 5.2 5.1 5.1 5.3 5.5 5.8 6.0 6.6 7.5 8.0 8.4 8.6 8.5 8.4 8.2 8.0 7.7
Wind_Speed
13 11 8 9 9 6 6 3 11 12 12 12 12 11 11 9 9 10 12 13 18 19 13 6 5 4 5 5 7 5 6 4 2 3 3 3 4 3 2 3 0 2 2
14 14 11 10 8 7 7 4 2 8 11 11 11 9 10 9 9 6 8 11 16 18 12 7 7 6 5 6 6 6 3 3 3 3 2 2 3 2 3 2 2 3 4
12 14 12 10 10 9 7 5 5 7 9 12 9 8 7 8 8 9 9 9 14 16 13 10 6 6 6 7 5 6 7 4 2 5 4 2 5 1 2 4 3 4 3
13 17 10 9 10 8 7 2 3 6 7 12 12 13 10 10 8 7 7 8 11 11 11 9 7 5 4 5 5 5 5 4 5 1 2 1 2 3 2 1 2 2 3
11 10 8 9 9 10 7 1 6 7 7 8 8 9 8 4 3 4 5 5 7 8 9 8 8 6 4 5 6 5 6 5 4 3 2 2 1 1 2 3 2 1 3
9 8 9 11 11 9 4 4 5 7 8 7 8 9 9 7 5 5 4 4 3 4 6 6 6 7 5 5 4 4 7 8 6 6 5 4 3 3 3 3 3 3 2
6 12 13 8 9 9 4 2 5 2 3 8 8 9 8 9 13 10 7 6 5 4 6 6 6 4 5 4 4 3 2 3 4 5 4 4 4 3 3 3 2 3 2
7 7 11 9 10 10 6 4 1 2 2 5 5 5 6 4 6 6 6 5 5 5 6 6 6 5 4 4 4 3 3 2 0 2 3 3 3 3 3 3 4 2 3
8 5 4 8 12 10 7 6 6 5 3 3 5 6 6 7 7 9 8 7 6 6 7 6 7 5 5 6 5 3 3 4 4 3 3 3 3 3 3 3 3 4 3
12 10 7 13 11 10 8 6 6 6 5 6 6 6 7 8 7 8 8 9 7 8 8 7 7 6 6 5 5 3 3 3 3 3 3 3 2 4 4 5 5 3 5
8 9 9 14 13 10 9 7 5 7 6 5 7 8 8 9 8 8 8 8 9 9 9 8 7 7 7 6 5 4 2 2 2 3 4 4 3 3 3 3 3 5 4
10 8 10 15 14 11 9 8 7 6 6 7 7 7 8 8 8 9 9 9 9 8 7 7 7 6 6 6 7 6 5 4 2 2 2 3 2 5 4 4 6 6 6
9 8 10 13 15 13 11 9 8 7 7 8 8 8 7 8 8 8 8 8 7 7 7 6 6 6 6 6 5 5 4 1 0 1 3 4 3 3 3 4 4 4 3
6 7 6 13 11 15 14 12 10 10 11 10 9 9 8 8 8 7 7 7 7 7 6 6 6 5 4 4 5 5 4 2 1 1 2 4 4 4 4 4 5 4 3
12 8 6 10 12 11 16 14 12 12 11 11 10 9 8 9 8 6 7 6 6 6 6 6 6 5 4 3 5 5 6 2 2 2 2 3 5 8 7 3 4 3 3
15 11 9 7 13 13 12 12 12 10 9 11 10 9 9 9 7 7 8 7 6 6 6 6 5 5 3 8 7 5 1 1 4 4 4 3 5 6 9 9 9 7 5
9 8 10 10 9 13 11 12 13 7 5 7 9 9 10 9 8 7 6 6 6 6 5 4 5 4 3 8 7 6 3 3 4 5 4 4 4 6 6 6 7 7 10
11 10 9 11 13 11 11 11 11 10 7 10 10 8 7 6 6 7 6 4 3 3 3 3 3 2 1 7 5 4 3 3 6 5 6 6 5 6 6 5 5 5 6
7 8 7 16 15 15 14 12 11 10 10 9 8 8 7 7 6 5 4 5 5 4 2 1 2 2 3 3 5 5 3 4 7 7 7 7 7 7 10 6 6 6 6
0 8 15 16 16 15 13 13 11 10 10 10 9 7 6 6 6 6 5 3 1 1 2 2 1 0 2 4 6 4 3 5 7 6 6 10 9 9 10 7 6 7 6
12 14 15 14 15 15 15 12 10 10 9 8 7 7 6 7 6 5 2 2 1 3 3 2 2 3 3 6 10 8 5 5 5 4 5 4 9 10 10 11 6 7 4
13 14 14 13 14 13 14 13 11 10 10 8 7 5 5 3 3 4 6 6 5 4 3 2 4 4 6 11 11 10 10 7 6 7 4 4 10 11 12 9 11 10 5
13 12 13 14 11 12 13 12 11 10 8 8 7 6 5 5 6 5 3 1 3 3 3 3 3 3 4 5 12 10 9 10 4 4 8 12 11 12 8 12 11 8 5
12 13 14 13 11 10 10 12 12 10 9 7 6 5 5 3 5 3 3 3 2 2 2 2 2 2 2 2 1 2 2 2 3 5 5 6 6 6 5 3 6 6 6
12 13 14 12 11 10 11 11 11 10 7 6 6 5 4 5 3 4 3 3 4 3 2 1 1 1 3 3 0 3 4 4 5 6 5 6 6 4 4 4 5 5 5
12 13 13 12 12 10 12 11 8 6 6 5 3 3 3 2 0 1 2 6 8 8 8 7 6 4 9 9 12 14 13 12 11 6 8 9 7 8 6 6 7 7 8
Wind_Direction
256 263 208 197 218 222 99 50 160 180 174 178 185 192 205 200 198 210 190 188 183 188 194 195 210 200 149 166 165 193 234 223 180 79 48 3 0 331 274 106 290 322 274
239 241 235 212 192 132 114 156 230 158 187 188 188 194 196 202 204 196 189 197 179 180 187 191 192 180 171 193 179 179 200 213 178 131 92 265 278 252 260 11 320 328 334
230 240 235 195 147 139 154 180 218 197 187 185 186 191 191 202 187 197 195 195 167 171 184 182 182 182 180 194 176 174 202 184 180 155 148 144 228 174 148 196 196 199 213
233 243 234 159 136 124 110 104 256 231 223 190 186 193 204 200 197 191 190 156 154 160 171 177 186 166 162 190 184 175 190 167 175 154 177 95 129 205 280 215 243 200 231
227 216 190 127 117 84 84 325 232 238 237 192 194 196 196 151 85 81 98 116 137 153 167 169 169 175 177 190 187 180 184 187 167 173 145 125 144 142 205 260 259 336 242
218 177 111 94 102 86 67 263 233 209 209 170 154 139 160 161 188 156 163 181 139 130 148 166 167 176 160 169 192 193 193 190 191 190 173 164 170 184 183 228 213 222 232
172 118 116 126 125 120 151 257 281 155 83 112 136 154 170 196 212 174 181 161 144 154 148 137 143 144 142 167 176 167 194 182 188 180 196 206 201 156 175 157 177 225 198
93 127 141 145 129 129 141 182 201 101 101 119 135 163 127 133 145 147 146 156 159 155 146 149 142 146 158 171 186 193 198 157 246 236 206 192 214 183 179 180 161 220 232
132 142 158 128 119 128 143 169 149 122 138 157 189 168 143 140 139 139 151 160 157 158 161 136 124 144 149 166 157 147 162 175 186 213 247 236 227 191 202 183 179 208 235
161 173 169 125 129 126 129 113 127 122 107 108 110 116 120 114 127 131 136 136 129 131 133 135 142 152 154 157 141 121 120 147 156 155 175 222 210 204 195 203 205 210 229
185 169 165 135 124 129 129 129 133 144 135 122 121 122 126 130 133 133 129 133 142 147 151 151 142 148 161 162 151 140 143 229 217 188 205 233 256 233 211 210 203 220 213
200 161 152 136 134 140 141 136 144 137 137 140 138 141 145 141 137 144 151 152 147 146 136 143 146 139 132 140 153 163 174 192 225 296 302 275 220 241 215 215 213 218 214
145 161 165 153 148 149 155 153 159 161 164 168 163 160 176 163 151 137 136 126 120 119 131 124 131 136 138 140 133 128 123 108 96 309 266 275 307 294 261 246 241 214 178
185 188 192 157 163 154 156 167 172 181 187 180 161 156 155 140 136 137 126 127 132 129 118 105 91 95 106 133 154 128 117 79 332 272 335 301 298 283 280 247 238 235 187
185 197 207 166 165 162 157 168 181 189 178 164 164 153 133 129 127 124 106 89 92 102 111 119 133 119 117 86 51 40 44 29 326 329 287 255 249 246 243 246 246 227 187
201 203 178 206 172 163 163 168 167 178 169 168 148 138 132 127 127 133 137 132 137 137 130 142 137 119 118 124 126 128 195 319 272 274 275 281 275 258 255 250 228 212 186
199 197 195 190 163 164 155 162 153 145 152 138 146 147 140 146 153 156 145 129 110 108 116 127 144 162 173 159 165 145 217 235 245 268 269 269 254 263 272 271 265 252 235
199 212 203 143 132 130 133 139 146 157 171 149 150 151 138 127 95 83 91 95 122 139 131 111 97 76 162 154 127 143 231 256 272 257 250 256 261 249 249 262 263 248 233
210 214 160 148 144 152 151 156 157 159 147 145 116 94 94 96 100 108 88 53 44 35 54 136 147 244 310 10 353 356 304 266 263 257 255 242 247 245 238 227 245 257 252
290 128 136 141 147 153 150 152 149 140 125 121 114 115 128 113 97 82 94 121 79 292 297 313 3 164 304 311 291 276 273 278 279 280 254 252 246 229 223 221 216 249 255
119 118 135 145 148 143 135 131 119 123 117 110 110 118 105 103 108 101 70 30 310 288 291 334 335 314 273 287 277 271 264 257 264 264 273 252 243 241 238 227 211 227 194
123 129 137 140 139 135 132 131 122 125 123 127 128 123 118 126 132 174 210 211 206 207 199 235 266 241 238 234 247 246 242 248 267 273 249 238 250 245 238 235 226 228 176
135 129 123 126 124 124 131 136 137 134 140 143 143 146 160 188 193 180 183 193 229 215 231 205 220 236 219 218 216 222 224 235 231 251 261 252 235 236 233 230 218 186 174
146 140 132 133 130 115 122 127 136 144 151 162 171 138 127 178 205 210 200 203 209 223 228 246 261 275 4 5 75 185 200 257 264 272 272 259 248 216 214 202 197 186 186
155 147 142 136 134 135 138 145 147 154 152 154 163 171 162 166 196 217 215 229 225 204 217 246 244 270 263 237 221 295 288 271 258 273 271 279 263 201 203 197 187 197 191
157 132 130 139 153 149 138 140 143 125 136 112 119 136 151 147 189 265 276 246 232 234 215 229 228 251 251 258 261 261 261 258 258 273 278 275 261 247 222 201 198 198 200